Weather Roundup
Issued by NWS Chicago, IL

Home | Current Version | Previous Version | Graphics & Text | Print | Product List | Glossary On
Versions: 1 2 3 4 5 6 7 8 9 10 11 12 13 14 15 16 17 18 19 20 21 22 23 24 25 26 27 28 29 30 31 32 33 34 35 36 37 38 39 40 41 42 43 44 45 46 47 48 49 50
000
NZUS59 KLOT 210421
HRRLOT

CHICAGO AREA WEATHER ROUNDUP
NATIONAL WEATHER SERVICE CHICAGO/ROMEOVILLE IL
1100 PM CDT MON APR 20 2015

NOTE: "FAIR" INDICATES FEW OR NO CLOUDS BELOW 12,000 FEET WITH NO
SIGNIFICANT WEATHER AND/OR OBSTRUCTIONS TO VISIBILITY.

* THESE STATIONS ARE NOT UNDER NWS QUALITY CONTROL. THEY ALSO MAY NOT
  REPORT WEATHER SUCH AS PRECIPITATION OR FOG.

ILZ005-006-012>014-019>023-210500-
NORTHEAST ILLINOIS

CITY           SKY/WX    TMP DP  RH WIND       PRES   REMARKS
OHARE          MOCLDY    43  33  68 W15G23    29.61S
MIDWAY         PTCLDY    45  34  65 W12       29.63S
AURORA         CLOUDY    41  33  73 W13       29.64S
LANSING*       PTCLDY    43  32  65 W18       29.65S
JOLIET*        PTCLDY    43  36  75 W8        29.65F
WAUKEGAN       CLOUDY    43  31  62 SW8G16    29.58S
DUPAGE AIRPORT CLOUDY    42  34  73 SW13      29.62S
WHEELING       CLEAR     43  33  68 SW9       29.61S
KANKAKEE*      MOCLDY    42  37  80 SW9       29.68F
MORRIS*        PTCLDY    41  34  75 W10       29.63F
LEWIS AIRPORT* PTCLDY    41  34  75 W13G20    29.64S
NORTHERLY IS     N/A     45  33  63 SE12        N/A
$$

WIZ051-052-058>065-066-070>072-210500-
SOUTHEAST WISCONSIN

CITY           SKY/WX    TMP DP  RH WIND       PRES   REMARKS
MILWAUKEE      CLOUDY    44  30  57 W12       29.54F
KENOSHA*       CLOUDY    43  31  62 W18       29.56F
RACINE*        CLOUDY    44  30  57 W15G22    29.56F
BURLINGTON     CLOUDY    40  31  68 W10       29.56S
WAUKESHA       CLOUDY    39  30  70 SW14G22   29.54F
WEST BEND      CLOUDY    39  30  70 SW8       29.50F
$$

INZ001>003-010>013-019-020-210500-
NORTHWEST INDIANA

CITY           SKY/WX    TMP DP  RH WIND       PRES   REMARKS
GARY*          PTCLDY    46  31  55 SW8G17    29.65S
MICHIGAN CITY* NOT AVBL
RENSSELAER*    NOT AVBL
VALPARAISO     CLOUDY    43  35  73 SW10      29.66S
$$

LMZ740>746-210500-
SOUTHERN LAKE MICHIGAN

STATION/POSITION TIME  SKY/WX   TEMP WIND        PRES    VSBY
                                AIR  DIR/SP/G
                 (UTC)          (F)  (DEG/KT/KT) (MB)    (MI)
HARRISON CRIB    0400            45  240/ 14/ 22   N/A
BURNHAM HARBOR   0400            45  230/  6/ 12   N/A
CALUMET HARBOR   0300            46  220/ 10/ 15   N/A
BURNS HARBOR     0300            47  230/ 14/ 20 1004.4R
MICHIGAN CITY    0400            45  200/ 17/ 20   N/A
$$

ABBREVIATIONS USED IN REMARKS
   TC - TEMPERATURE IN CELSIUS
  WCI - WIND CHILL INDEX
   HX - HEAT INDEX
  VSB - VISIBILITY
$$



USA.gov is the U.S. government's official web portal to all federal, state and local government web resources and services.